Location: Huntington
(40.8831°N, 85.4975°W)
Time: 01:20:19
(UTC-04:00)

Envisat - Pass Details

Date: 17 April 2021
Orbit: 764 x 766 km, 98.1° (Epoch: 17 May)

Event Time Altitude Azimuth Distance (km) Brightness Sun altitude
Rises 06:27:33 0° 24° (NNE) 3,239 7.0 -6.6°
Reaches altitude 10° 06:30:10 10° 35° (NE) 2,307 6.4 -6.1°
Maximum altitude 06:34:34 29° 95° (E) 1,369 5.2 -5.3°
Drops below altitude 10° 06:38:57 10° 156° (SSE) 2,292 5.6 -4.6°
Sets 06:41:31 0° 167° (SSE) 3,213 6.2 -4.1°
